Simultaneous Nadir Overpasses (SNOs) Predictions

Prediction of SNOs between METOP-B and TERRA Satellite Orbit:

Table of predicted SNOs for the next 14.0 days since TLE Epoch: 9/29/2013
Index Date (METOP-B) Time (METOP-B) Lat,Lon (METOP-B) SZA (METOP-B ) Date (TERRA) Time (TERRA) Lat,Lon (TERRA) SZA (TERRA ) Distance(km) Time Diff (sec)
1 10/01/2013 18:48:54 81.27, -57.19 87.55 10/01/2013 18:50:08 81.20, -57.20 87.54 7.57 74
2 10/01/2013 19:39:29 -81.31, 112.19 92.19 10/01/2013 19:39:30 -81.31, 112.22 92.18 0.64 1
3 10/01/2013 20:30:09 81.32, -79.97 87.90 10/01/2013 20:28:56 81.31, -80.04 87.85 1.35 73
4 10/04/2013 14:23:10 81.30, 10.98 88.87 10/04/2013 14:24:15 81.30, 10.94 88.90 0.65 65
5 10/04/2013 15:13:49 -81.31, 178.79 91.06 10/04/2013 15:13:41 -81.32, 178.90 91.04 2.12 8
6 10/
